Volver al catálogo

CERES 1

ActivoMilitarLEO
NORAD 49464·PAYLOAD·🇫🇷 France

Lanzado Nov 16, 2021 desde Guiana Space Centre

Loading…

Próximos Pases (próximas 24 horas)

TLE

ObsoletoSource: Mike McCants

Época: Aug 26, 2026, 02:20 UTC

1 49464U 21105A   26238.09733964 0.00000334  00000-0  56294-4 0    01
2 49464  74.9991 218.2999 0012841 253.0055 107.0521 14.69464780    09

Sigue CERES 1 en tiempo real con AllMySat

Download on the App Store